Regional Weather Roundup
Issued by NWS Sterling, VA

Home | Current Version | Previous Version | Graphics & Text | Print | Product List | Glossary On
Versions: 1 2 3 4 5 6 7 8 9 10 11 12 13 14 15 16 17 18 19 20 21 22 23 24 25 26 27 28 29 30 31 32 33 34 35 36 37 38 39 40 41 42 43 44 45 46 47 48 49 50
264
ASUS41 KLWX 080710
RWRLWX

REGIONAL WEATHER ROUNDUP
NATIONAL WEATHER SERVICE BALTIMORE MD/WASHINGTON DC
200 AM EST THU DEC 08 2016

Note: "FAIR" indicates few or no clouds below 12,000 feet
with no significant weather and/or obstructions to visibility.
 TC=TEMPERATURE CELSIUS

 * =Non NWS site. Station does not report precipitation (e.g. rain,
    snow, etc.), thunder, or fog.

DCZ001-MDZ009-015-VAZ040>042-051-053>054-080800-
WASHINGTON METRO

CITY           SKY/WX    TMP DP  RH WIND       PRES   REMARKS
WASHINGTON NAT MOCLDY    37  34  89 N3        30.07S
DULLES         MOCLDY    29  27  92 CALM      30.06F
ANDREWS AFB    PTCLDY    35  30  80 CALM      30.05S
FT BELVOIR     PTCLDY    30  29  94 CALM      30.07R
QUANTICO       CLOUDY    35  32  88 NW5       30.08S
COLLEGE PARK*  PTCLDY    30  30 100 CALM      30.07S
LEESBURG*      CLOUDY    32  32 100 MISG      30.06F
MANASSAS*        N/A    N/A N/A N/A MISG        N/A
GAITHERSBURG*  PTCLDY    30  27  86 CALM      30.09F

$$

MDZ006>007-011-014-080800-
BALTIMORE METRO

CITY           SKY/WX    TMP DP  RH WIND       PRES   REMARKS
BWI AIRPORT    CLOUDY    31  31 100 W3        30.06R
MD SCIENCE CTR   N/A     41  28  60 MISG      30.06R
ANNAPOLIS      PTCLDY    38  35  89 CALM      30.07R
FORT MEADE*    CLOUDY    28  28 100 CALM      30.09R

$$

MDZ012-015-019>023-080800-
MARYLAND EASTERN SHORE

CITY           SKY/WX    TMP DP  RH WIND       PRES   REMARKS
OCEAN CITY     PTCLDY    33  32  96 CALM      30.06S FOG
SALISBURY      PTCLDY    31  29  92 CALM      30.05F
EASTON*        CLOUDY    34  32  93 CALM      30.10R

$$

MDZ017>025-080800-
SOUTHERN MARYLAND

CITY           SKY/WX    TMP DP  RH WIND       PRES   REMARKS
PATUXENT RIVER PTCLDY    33  32  96 W5        30.06R
ST INIGOES     PTCLDY    33  32  96 CALM      30.06R
LEONARDTOWN*   PTCLDY    32  30  93 CALM      30.06F

$$

MDZ003>005-080800-
NORTH CENTRAL MARYLAND

CITY           SKY/WX    TMP DP  RH WIND       PRES   REMARKS
FREDERICK*     NOT AVBL
HAGERSTOWN APT CLOUDY    37  22  54 SW5       30.04S
WESTMINSTER*   PTCLDY    30  27  86 SW3       30.03S FOG

$$

MDZ501>502-080800-
WESTERN MARYLAND

CITY           SKY/WX    TMP DP  RH WIND       PRES   REMARKS
OAKLAND*       CLOUDY    28  19  69 W10G16    29.98R WCI  19
CUMBERLAND*    NOT AVBL

$$

VAZ025>031-080800-
SHENANDOAH VALLEY

CITY           SKY/WX    TMP DP  RH WIND       PRES   REMARKS
WINCHESTER*    CLOUDY    30  27  86 CALM      30.04F
FRONT ROYAL*   FAIR      30  30 100 S3        30.04F
LURAY*         PTSUNNY   30  30 100 CALM      30.04F
NEW MARKET*    PTSUNNY   27  26  94 CALM      30.04F
STAUNTON*      CLOUDY    29  28  96 CALM      30.06R
WAYNESBORO*    FAIR      32  30  93 CALM      30.02S

$$

WVZ021-048>050-054>055-080800-
EASTERN WEST VIRGINIA PANHANDLE

CITY           SKY/WX    TMP DP  RH WIND       PRES   REMARKS
MARTINSBURG    CLOUDY    30  24  78 CALM      30.04F
PETERSBURG*    CLOUDY    28  26  93 CALM      30.06S

$$

VAZ036>039-050-080800-
CENTRAL FOOTHILLS

CITY           SKY/WX    TMP DP  RH WIND       PRES   REMARKS
CHARLOTTESVILL CLOUDY    36  32  85 CALM      30.04R
CULPEPER*      CLOUDY    31  31  99 CALM      30.07S
ORANGE*          N/A     32  32 100 CALM      30.06S
GORDONSVILLE*  FAIR      32  32 100 CALM      30.03F
WARRENTON*     CLOUDY    32  28  86 CALM      30.05S

$$

VAZ055>057-080800-
NORTH AND CENTRAL PIEDMONT

CITY           SKY/WX    TMP DP  RH WIND       PRES   REMARKS
FREDERICKSBRG* MOCLDY    34  34 100 CALM      30.06S
STAFFORD*      MOCLDY    31  31 100 CALM      30.10S

$$

NCZ024-NYZ072-PAZ021-071-VAZ022-071-080800-
OTHER REGIONAL OBSERVATIONS

CITY           SKY/WX    TMP DP  RH WIND       PRES   REMARKS
NEW YORK CITY  CLEAR     42  30  62 W6        30.01F
PHILADELPHIA   CLOUDY    37  30  75 W9        30.04S
PITTSBURGH     CLOUDY    34  23  64 W5        30.05R
ROANOKE        MOCLDY    41  31  67 NW6       30.06R
RICHMOND       CLOUDY    40  36  86 CALM      30.05S
RALEIGH        CLOUDY    50  44  80 SE6       30.04F

$$

ANZ530>537-080800-
MARINE OBSERVATIONS

STATION/POSITION TIME  TEMP    WIND        PRES
                       AIR SEA DIR/SP/G
                 (UTC) (F)     (DEG/KT/KT) (MB)
THOMAS PT LIGHT  NOT AVBL
BALT KEY BRIDGE  0648          230/  4/  4 1018.2R
COVE POINT       0648          240/  2/  3 1018.1F
LEWISETTA        0648      48  240/  4/  5 1017.6R
SOLOMONS ISLAND  0648      50  320/  3/  4   N/A
PINEY POINT      0648          250/  2/  3   N/A

$$





USA.gov is the U.S. government's official web portal to all federal, state and local government web resources and services.